Time,TemperatureF,DewpointF,PressureIn,WindDirection,WindDirectionDegrees,WindSpeedMPH,WindSpeedGustMPH,Humidity,HourlyPrecipIn,Conditions,Clouds,dailyrainin,SoftwareType,DateUTC
2013-04-18 00:00:00,46.0,45.9,29.99,ESE,106,6.0,8.0,99,0.03,,,1.25,meteohub,2013-04-18 04:00:00,
2013-04-18 00:01:00,46.0,45.9,29.99,ESE,105,4.0,8.0,99,0.03,,,1.25,meteohub,2013-04-18 04:01:00,
2013-04-18 00:02:00,46.0,45.9,29.99,ESE,116,6.0,8.0,99,0.03,,,1.25,meteohub,2013-04-18 04:02:00,
2013-04-18 00:07:00,46.0,45.9,29.97,ENE,71,5.0,8.0,99,0.03,,,1.25,meteohub,2013-04-18 04:07:00,
2013-04-18 00:12:00,46.0,45.9,29.96,ENE,74,4.0,8.0,99,0.03,,,0.01,meteohub,2013-04-18 04:12:00,
2013-04-18 00:17:00,46.0,45.9,29.95,NE,47,4.0,8.0,99,0.03,,,0.01,meteohub,2013-04-18 04:17:00,
2013-04-18 00:22:00,46.0,45.9,29.92,East,82,4.0,8.0,99,0.03,,,0.01,meteohub,2013-04-18 04:22:00,
2013-04-18 00:27:00,46.0,45.9,29.91,ENE,60,1.0,8.0,99,0.03,,,0.03,meteohub,2013-04-18 04:27:00,
2013-04-18 00:32:00,46.0,45.9,29.90,ENE,67,3.0,8.0,99,0.03,,,0.03,meteohub,2013-04-18 04:32:00,
2013-04-18 00:37:00,46.0,45.9,29.90,ENE,74,4.0,8.0,99,0.04,,,0.03,meteohub,2013-04-18 04:37:00,
2013-04-18 00:43:00,46.0,45.9,29.90,ESE,105,6.0,8.0,99,0.04,,,0.03,meteohub,2013-04-18 04:43:00,
2013-04-18 00:48:00,46.0,45.9,29.89,ENE,78,5.0,8.0,99,0.04,,,0.03,meteohub,2013-04-18 04:48:00,
2013-04-18 00:53:00,46.0,45.9,29.88,ENE,65,8.0,8.0,99,0.04,,,0.04,meteohub,2013-04-18 04:53:00,
2013-04-18 00:58:00,46.0,45.9,29.87,ESE,102,8.0,11.0,99,0.05,,,0.04,meteohub,2013-04-18 04:58:00,
2013-04-18 01:03:00,46.0,45.9,29.87,ESE,110,11.0,11.0,99,0.05,,,0.04,meteohub,2013-04-18 05:03:00,
2013-04-18 01:08:00,46.0,45.9,29.88,ENE,78,3.0,11.0,99,0.05,,,0.04,meteohub,2013-04-18 05:08:00,
2013-04-18 01:13:00,46.0,45.9,29.87,East,86,7.0,11.0,99,0.05,,,0.04,meteohub,2013-04-18 05:13:00,
2013-04-18 01:18:00,46.2,46.0,29.89,SE,136,7.0,13.0,99,0.03,,,0.04,meteohub,2013-04-18 05:18:00,
2013-04-18 01:23:00,46.2,46.0,29.89,ESE,108,7.0,13.0,99,0.03,,,0.04,meteohub,2013-04-18 05:23:00,
2013-04-18 01:28:00,46.2,46.0,29.89,ESE,108,7.0,13.0,99,0.03,,,0.05,meteohub,2013-04-18 05:28:00,
2013-04-18 01:33:00,46.4,46.2,29.89,ESE,107,6.0,14.0,99,0.02,,,0.05,meteohub,2013-04-18 05:33:00,
2013-04-18 01:38:00,46.4,46.2,29.88,ESE,110,8.0,14.0,99,0.02,,,0.05,meteohub,2013-04-18 05:38:00,
2013-04-18 01:43:00,46.6,46.4,29.89,SE,136,4.0,14.0,99,0.02,,,0.05,meteohub,2013-04-18 05:43:00,
2013-04-18 01:48:00,46.6,46.4,29.88,ESE,116,2.0,14.0,99,0.01,,,0.05,meteohub,2013-04-18 05:48:00,
2013-04-18 01:53:00,46.8,46.6,29.88,SE,124,4.0,14.0,99,0.01,,,0.05,meteohub,2013-04-18 05:53:00,
2013-04-18 01:58:00,46.8,46.6,29.87,East,86,6.0,14.0,99,0.01,,,0.07,meteohub,2013-04-18 05:58:00,
2013-04-18 02:03:00,46.8,46.6,29.87,East,95,4.0,10.0,99,0.04,,,0.07,meteohub,2013-04-18 06:03:00,
2013-04-18 02:08:00,46.9,46.8,29.87,East,99,6.0,10.0,99,0.04,,,0.07,meteohub,2013-04-18 06:08:00,
2013-04-18 02:13:00,46.9,46.8,29.86,East,97,6.0,10.0,99,0.04,,,0.11,meteohub,2013-04-18 06:13:00,
2013-04-18 02:18:00,46.9,46.8,29.85,East,89,8.0,12.0,99,0.08,,,0.11,meteohub,2013-04-18 06:18:00,
2013-04-18 02:23:00,46.9,46.8,29.85,ENE,77,9.0,12.0,99,0.08,,,0.11,meteohub,2013-04-18 06:23:00,
2013-04-18 02:29:00,46.9,46.8,29.85,ESE,107,11.0,12.0,99,0.08,,,0.19,meteohub,2013-04-18 06:29:00,
2013-04-18 02:34:00,46.9,46.8,29.83,East,82,6.0,14.0,99,0.15,,,0.19,meteohub,2013-04-18 06:34:00,
2013-04-18 02:39:00,46.9,46.8,29.83,East,98,10.0,14.0,99,0.15,,,0.19,meteohub,2013-04-18 06:39:00,
2013-04-18 02:44:00,46.9,46.8,29.82,East,85,9.0,14.0,99,0.15,,,0.26,meteohub,2013-04-18 06:44:00,
2013-04-18 02:49:00,47.1,46.9,29.83,East,94,4.0,12.0,99,0.25,,,0.26,meteohub,2013-04-18 06:49:00,
2013-04-18 02:54:00,47.3,47.1,29.86,SE,130,8.0,12.0,99,0.25,,,0.26,meteohub,2013-04-18 06:54:00,
2013-04-18 02:59:00,47.1,46.9,29.83,ENE,74,8.0,12.0,99,0.25,,,0.36,meteohub,2013-04-18 06:59:00,
2013-04-18 03:04:00,47.1,46.9,29.81,NE,34,3.0,13.0,99,0.34,,,0.36,meteohub,2013-04-18 07:04:00,
2013-04-18 03:09:00,47.1,46.9,29.83,East,90,6.0,13.0,99,0.34,,,0.36,meteohub,2013-04-18 07:09:00,
2013-04-18 03:14:00,47.1,46.9,29.81,NE,46,10.0,13.0,99,0.34,,,0.49,meteohub,2013-04-18 07:14:00,
2013-04-18 03:19:00,47.1,46.9,29.82,NW,319,4.0,10.0,99,0.38,,,0.49,meteohub,2013-04-18 07:19:00,
2013-04-18 03:24:00,47.1,46.9,29.83,NNW,340,0.0,10.0,99,0.38,,,0.49,meteohub,2013-04-18 07:24:00,
2013-04-18 03:29:00,47.1,46.9,29.83,NE,56,2.0,10.0,99,0.42,,,0.54,meteohub,2013-04-18 07:29:00,
2013-04-18 03:34:00,46.9,46.8,29.83,East,97,4.0,10.0,99,0.42,,,0.54,meteohub,2013-04-18 07:34:00,
2013-04-18 03:39:00,46.9,46.8,29.81,NE,54,4.0,10.0,99,0.42,,,0.54,meteohub,2013-04-18 07:39:00,
2013-04-18 03:44:00,46.9,46.8,29.80,ENE,57,4.0,10.0,99,0.42,,,0.74,meteohub,2013-04-18 07:44:00,
2013-04-18 03:49:00,46.8,46.6,29.78,ENE,64,4.0,8.0,99,0.47,,,0.74,meteohub,2013-04-18 07:49:00,
2013-04-18 03:54:00,46.8,46.6,29.77,ENE,63,12.0,12.0,99,0.47,,,0.74,meteohub,2013-04-18 07:54:00,
2013-04-18 04:00:00,46.9,46.8,29.79,NE,46,2.0,8.0,99,0.56,,,0.89,meteohub,2013-04-18 08:00:00,
2013-04-18 04:05:00,47.1,46.9,29.82,NW,326,1.0,15.0,99,0.56,,,0.89,meteohub,2013-04-18 08:05:00,
2013-04-18 04:10:00,47.1,46.9,29.79,ENE,77,5.0,15.0,99,0.56,,,0.89,meteohub,2013-04-18 08:10:00,
2013-04-18 04:15:00,47.1,46.9,29.82,ESE,102,7.0,15.0,99,0.56,,,1.25,meteohub,2013-04-18 08:15:00,
2013-04-18 04:20:00,47.3,47.1,29.78,NE,56,0.0,10.0,99,0.81,,,1.25,meteohub,2013-04-18 08:20:00,
2013-04-18 04:25:00,47.5,47.3,29.79,East,82,5.0,10.0,99,0.81,,,1.25,meteohub,2013-04-18 08:25:00,
2013-04-18 04:30:00,47.7,47.5,29.79,ESE,113,8.0,10.0,99,0.86,,,1.47,meteohub,2013-04-18 08:30:00,
2013-04-18 04:35:00,47.5,47.3,29.79,East,96,4.0,9.0,99,0.86,,,1.47,meteohub,2013-04-18 08:35:00,
2013-04-18 04:40:00,47.7,47.5,29.79,East,98,4.0,9.0,99,0.86,,,1.47,meteohub,2013-04-18 08:40:00,
2013-04-18 04:45:00,47.8,47.7,29.79,ESE,113,10.0,10.0,99,0.86,,,1.60,meteohub,2013-04-18 08:45:00,
2013-04-18 04:50:00,48.0,47.8,29.77,ENE,72,5.0,13.0,99,0.93,,,1.60,meteohub,2013-04-18 08:50:00,
2013-04-18 04:55:00,48.4,48.2,29.79,SE,139,12.0,13.0,99,0.93,,,1.60,meteohub,2013-04-18 08:55:00,
2013-04-18 05:00:00,48.7,48.6,29.76,East,101,10.0,13.0,99,0.93,,,1.60,meteohub,2013-04-18 09:00:00,
2013-04-18 05:05:00,49.3,49.1,29.75,East,101,8.0,13.0,99,0.93,,,1.93,meteohub,2013-04-18 09:05:00,
2013-04-18 05:11:00,49.6,49.5,29.77,SE,124,13.0,13.0,99,0.93,,,1.93,meteohub,2013-04-18 09:11:00,
2013-04-18 05:16:00,50.0,49.6,29.75,ESE,119,10.0,16.0,99,0.75,,,1.93,meteohub,2013-04-18 09:16:00,
2013-04-18 05:21:00,50.4,50.0,29.75,East,81,7.0,16.0,99,0.75,,,1.93,meteohub,2013-04-18 09:21:00,
2013-04-18 05:26:00,50.4,50.0,29.76,SE,124,6.0,16.0,99,0.75,,,1.93,meteohub,2013-04-18 09:26:00,
2013-04-18 05:32:00,50.5,50.2,29.73,ESE,102,6.0,16.0,99,0.75,,,2.16,meteohub,2013-04-18 09:32:00,
2013-04-18 05:37:00,50.5,50.2,29.73,SE,127,7.0,16.0,99,0.78,,,2.16,meteohub,2013-04-18 09:37:00,
2013-04-18 05:42:00,50.5,50.2,29.73,ESE,122,10.0,12.0,99,0.78,,,2.16,meteohub,2013-04-18 09:42:00,
2013-04-18 05:47:00,50.5,50.2,29.71,SE,127,5.0,12.0,99,0.78,,,2.16,meteohub,2013-04-18 09:47:00,
2013-04-18 05:52:00,50.5,50.2,29.72,East,94,12.0,12.0,99,0.78,,,2.16,meteohub,2013-04-18 09:52:00,
2013-04-18 05:57:00,50.5,50.2,29.72,ESE,116,13.0,13.0,99,0.78,,,2.46,meteohub,2013-04-18 09:57:00,
2013-04-18 06:02:00,50.5,50.2,29.72,SSE,158,13.0,13.0,99,0.71,,,2.46,meteohub,2013-04-18 10:02:00,
2013-04-18 06:07:00,50.5,50.2,29.70,SE,125,14.0,16.0,99,0.71,,,2.46,meteohub,2013-04-18 10:07:00,
2013-04-18 06:12:00,50.5,50.2,29.70,East,85,3.0,16.0,99,0.71,,,2.46,meteohub,2013-04-18 10:12:00,
2013-04-18 06:17:00,50.5,50.2,29.70,ESE,116,24.0,24.0,99,0.71,,,2.46,meteohub,2013-04-18 10:17:00,
2013-04-18 06:22:00,50.4,50.0,29.69,ESE,116,17.0,17.0,99,0.71,,,2.46,meteohub,2013-04-18 10:22:00,
2013-04-18 06:27:00,50.4,50.0,29.68,ESE,107,10.0,16.0,99,0.71,,,2.79,meteohub,2013-04-18 10:27:00,
2013-04-18 06:32:00,50.4,50.0,29.67,East,86,5.0,16.0,99,0.71,,,2.79,meteohub,2013-04-18 10:32:00,
2013-04-18 06:37:00,50.2,49.8,29.67,ESE,102,14.0,16.0,99,0.71,,,2.79,meteohub,2013-04-18 10:37:00,
2013-04-18 06:42:00,50.0,49.6,29.66,East,96,13.0,20.0,99,0.46,,,2.79,meteohub,2013-04-18 10:42:00,
2013-04-18 06:47:00,49.8,49.5,29.65,ESE,110,15.0,20.0,99,0.46,,,2.79,meteohub,2013-04-18 10:47:00,
2013-04-18 06:52:00,49.8,49.5,29.65,East,83,12.0,20.0,99,0.46,,,2.79,meteohub,2013-04-18 10:52:00,
2013-04-18 06:57:00,49.6,49.5,29.64,ESE,115,9.0,20.0,99,0.46,,,2.79,meteohub,2013-04-18 10:57:00,
2013-04-18 07:02:00,49.5,49.3,29.64,SE,142,10.0,20.0,99,0.46,,,2.79,meteohub,2013-04-18 11:02:00,
2013-04-18 07:07:00,49.5,49.3,29.64,East,96,10.0,20.0,99,0.46,,,2.79,meteohub,2013-04-18 11:07:00,
2013-04-18 07:12:00,49.5,49.3,29.72,North,359,16.0,20.0,99,0.46,,,2.79,meteohub,2013-04-18 11:12:00,
2013-04-18 07:17:00,50.4,50.0,29.73,WNW,298,20.0,20.0,99,0.46,,,2.79,meteohub,2013-04-18 11:17:00,
2013-04-18 07:23:00,51.3,50.9,29.75,WNW,301,15.0,20.0,99,0.04,,,2.79,meteohub,2013-04-18 11:23:00,
2013-04-18 07:28:00,52.7,52.3,29.71,South,187,9.0,21.0,99,0.04,,,2.79,meteohub,2013-04-18 11:28:00,
2013-04-18 07:33:00,52.9,52.5,29.70,SE,124,7.0,21.0,99,0.04,,,2.79,meteohub,2013-04-18 11:33:00,
2013-04-18 07:38:00,52.3,52.0,29.68,ESE,105,10.0,21.0,99,0.04,,,2.79,meteohub,2013-04-18 11:38:00,
2013-04-18 07:43:00,52.0,51.6,29.68,ESE,108,9.0,21.0,99,0.04,,,2.79,meteohub,2013-04-18 11:43:00,
2013-04-18 07:48:00,51.6,51.3,29.68,East,97,7.0,21.0,99,0.04,,,2.97,meteohub,2013-04-18 11:48:00,
2013-04-18 07:53:00,51.4,51.1,29.68,ESE,102,5.0,21.0,99,0.04,,,2.97,meteohub,2013-04-18 11:53:00,
2013-04-18 07:58:00,51.4,51.1,29.69,ESE,107,5.0,21.0,99,0.23,,,2.97,meteohub,2013-04-18 11:58:00,
2013-04-18 08:03:00,51.4,51.1,29.68,ESE,107,4.0,12.0,99,0.23,,,2.97,meteohub,2013-04-18 12:03:00,
2013-04-18 08:08:00,51.6,51.3,29.67,ESE,115,8.0,12.0,99,0.23,,,2.97,meteohub,2013-04-18 12:08:00,
2013-04-18 08:13:00,52.0,51.6,29.67,ESE,108,5.0,12.0,99,0.23,,,2.97,meteohub,2013-04-18 12:13:00,
2013-04-18 08:18:00,52.0,51.6,29.66,ESE,116,8.0,12.0,99,0.23,,,3.07,meteohub,2013-04-18 12:18:00,
2013-04-18 08:23:00,52.2,51.8,29.66,ESE,118,6.0,12.0,99,0.23,,,3.07,meteohub,2013-04-18 12:23:00,
2013-04-18 08:28:00,52.3,52.0,29.67,SE,146,0.0,12.0,99,0.23,,,3.07,meteohub,2013-04-18 12:28:00,
2013-04-18 08:33:00,52.5,52.2,29.66,NW,304,0.0,11.0,99,0.23,,,3.07,meteohub,2013-04-18 12:33:00,
2013-04-18 08:39:00,52.7,52.3,29.65,SE,138,6.0,11.0,99,0.23,,,3.07,meteohub,2013-04-18 12:39:00,
2013-04-18 08:44:00,52.5,52.2,29.64,SE,132,13.0,13.0,99,0.23,,,3.08,meteohub,2013-04-18 12:44:00,
2013-04-18 08:49:00,52.9,52.5,29.64,ESE,121,9.0,11.0,99,0.23,,,3.08,meteohub,2013-04-18 12:49:00,
2013-04-18 08:54:00,52.9,52.5,29.63,ESE,113,12.0,12.0,99,0.06,,,3.08,meteohub,2013-04-18 12:54:00,
2013-04-18 08:59:00,52.5,52.2,29.62,ESE,110,10.0,16.0,99,0.06,,,3.08,meteohub,2013-04-18 12:59:00,
2013-04-18 09:04:00,52.3,52.0,29.63,SE,124,8.0,16.0,99,0.06,,,3.08,meteohub,2013-04-18 13:04:00,
2013-04-18 09:09:00,52.3,52.0,29.65,East,93,2.0,16.0,99,0.06,,,3.08,meteohub,2013-04-18 13:09:00,
2013-04-18 09:14:00,52.3,52.0,29.64,SE,135,10.0,16.0,99,0.06,,,3.08,meteohub,2013-04-18 13:14:00,
2013-04-18 09:19:00,52.2,51.8,29.62,SE,129,11.0,16.0,99,0.01,,,3.08,meteohub,2013-04-18 13:19:00,
2013-04-18 09:24:00,52.2,51.8,29.62,ESE,116,7.0,13.0,99,0.01,,,3.08,meteohub,2013-04-18 13:24:00,
2013-04-18 09:29:00,52.0,51.6,29.62,East,84,6.0,13.0,99,0.01,,,3.08,meteohub,2013-04-18 13:29:00,
2013-04-18 09:34:00,52.2,51.8,29.62,ESE,116,6.0,13.0,99,0.01,,,3.08,meteohub,2013-04-18 13:34:00,
2013-04-18 09:39:00,52.0,51.6,29.60,ESE,119,11.0,13.0,99,0.01,,,3.08,meteohub,2013-04-18 13:39:00,
2013-04-18 09:44:00,52.0,51.6,29.60,ESE,105,9.0,13.0,99,0.00,,,3.08,meteohub,2013-04-18 13:44:00,
2013-04-18 09:50:00,51.8,51.4,29.59,ESE,110,12.0,13.0,99,0.00,,,3.08,meteohub,2013-04-18 13:50:00,
2013-04-18 09:55:00,51.8,51.4,29.59,East,90,8.0,13.0,99,0.00,,,3.08,meteohub,2013-04-18 13:55:00,
2013-04-18 10:00:00,51.8,51.4,29.58,ESE,113,12.0,13.0,99,0.00,,,3.08,meteohub,2013-04-18 14:00:00,
2013-04-18 10:05:00,51.6,51.3,29.58,East,94,7.0,13.0,99,0.00,,,3.08,meteohub,2013-04-18 14:05:00,
2013-04-18 10:10:00,51.6,51.3,29.57,ESE,110,12.0,14.0,99,0.00,,,3.08,meteohub,2013-04-18 14:10:00,
2013-04-18 10:15:00,51.6,51.3,29.57,ESE,113,8.0,14.0,99,0.00,,,3.08,meteohub,2013-04-18 14:15:00,
2013-04-18 10:20:00,51.6,51.3,29.56,East,98,8.0,14.0,99,0.00,,,3.08,meteohub,2013-04-18 14:20:00,
2013-04-18 10:25:00,51.4,51.1,29.56,ESE,108,7.0,14.0,99,0.00,,,3.08,meteohub,2013-04-18 14:25:00,
2013-04-18 10:30:00,51.6,51.3,29.56,ESE,107,10.0,14.0,99,0.00,,,3.08,meteohub,2013-04-18 14:30:00,
2013-04-18 10:35:00,52.0,51.6,29.55,ESE,105,11.0,14.0,99,0.00,,,3.08,meteohub,2013-04-18 14:35:00,
2013-04-18 10:40:00,52.3,52.0,29.55,ESE,113,11.0,14.0,99,0.00,,,3.08,meteohub,2013-04-18 14:40:00,
2013-04-18 10:45:00,53.1,52.7,29.54,ESE,110,16.0,16.0,99,0.00,,,3.08,meteohub,2013-04-18 14:45:00,
2013-04-18 10:50:00,53.4,53.1,29.54,SE,134,12.0,14.0,99,0.00,,,3.08,meteohub,2013-04-18 14:50:00,
2013-04-18 10:55:00,54.0,53.6,29.53,SE,128,11.0,14.0,99,0.00,,,3.08,meteohub,2013-04-18 14:55:00,
2013-04-18 11:00:00,54.9,54.5,29.53,SE,130,15.0,19.0,99,0.00,,,3.08,meteohub,2013-04-18 15:00:00,
2013-04-18 11:05:00,55.9,55.6,29.52,SE,136,10.0,19.0,99,0.00,,,3.08,meteohub,2013-04-18 15:05:00,
2013-04-18 11:10:00,56.8,56.5,29.51,SE,127,15.0,19.0,99,0.00,,,3.08,meteohub,2013-04-18 15:10:00,
2013-04-18 11:15:00,57.9,57.6,29.51,SE,134,16.0,19.0,99,0.00,,,3.08,meteohub,2013-04-18 15:15:00,
2013-04-18 11:20:00,59.0,59.0,29.50,SE,140,16.0,19.0,100,0.00,,,3.08,meteohub,2013-04-18 15:20:00,
2013-04-18 11:25:00,59.7,59.7,29.50,SE,129,15.0,22.0,100,0.01,,,3.08,meteohub,2013-04-18 15:25:00,
2013-04-18 11:30:00,60.3,59.9,29.49,SE,125,14.0,22.0,99,0.01,,,3.08,meteohub,2013-04-18 15:30:00,
2013-04-18 11:35:00,60.4,60.1,29.49,SE,142,10.0,22.0,99,0.01,,,3.08,meteohub,2013-04-18 15:35:00,
2013-04-18 11:40:00,61.0,60.6,29.49,SE,137,12.0,22.0,99,0.01,,,3.09,meteohub,2013-04-18 15:40:00,
2013-04-18 11:45:00,61.2,60.8,29.50,West,261,12.0,22.0,99,0.01,,,3.09,meteohub,2013-04-18 15:45:00,
2013-04-18 11:50:00,59.5,59.2,29.55,WSW,253,11.0,22.0,99,0.01,,,3.09,meteohub,2013-04-18 15:50:00,
2013-04-18 11:55:00,59.7,59.4,29.55,WSW,250,9.0,22.0,99,0.01,,,3.09,meteohub,2013-04-18 15:55:00,
2013-04-18 12:00:00,59.7,59.4,29.54,SW,217,4.0,22.0,99,0.01,,,3.09,meteohub,2013-04-18 16:00:00,
2013-04-18 12:06:00,59.9,59.5,29.54,West,259,4.0,22.0,99,0.01,,,3.19,meteohub,2013-04-18 16:06:00,
2013-04-18 12:11:00,59.9,59.5,29.54,SW,229,7.0,22.0,99,0.01,,,3.19,meteohub,2013-04-18 16:11:00,
2013-04-18 12:17:00,60.3,59.9,29.53,WSW,248,11.0,22.0,99,0.11,,,3.19,meteohub,2013-04-18 16:17:00,
2013-04-18 12:22:00,60.6,60.3,29.53,WSW,242,6.0,11.0,99,0.11,,,3.19,meteohub,2013-04-18 16:22:00,
2013-04-18 12:27:00,60.8,60.3,29.53,WSW,248,7.0,11.0,98,0.11,,,3.19,meteohub,2013-04-18 16:27:00,
2013-04-18 12:32:00,61.0,60.1,29.54,WSW,239,6.0,11.0,97,0.11,,,3.19,meteohub,2013-04-18 16:32:00,
2013-04-18 12:37:00,61.2,60.3,29.55,WSW,248,6.0,11.0,97,0.11,,,3.19,meteohub,2013-04-18 16:37:00,
2013-04-18 12:42:00,61.3,60.4,29.55,WSW,248,4.0,11.0,97,0.11,,,3.19,meteohub,2013-04-18 16:42:00,
2013-04-18 12:47:00,61.3,60.4,29.53,SW,233,2.0,11.0,97,0.11,,,3.19,meteohub,2013-04-18 16:47:00,
2013-04-18 12:52:00,61.7,60.8,29.53,WSW,242,3.0,11.0,97,0.06,,,3.19,meteohub,2013-04-18 16:52:00,
2013-04-18 12:58:00,61.9,60.8,29.53,SW,236,5.0,10.0,96,0.06,,,3.19,meteohub,2013-04-18 16:58:00,
2013-04-18 13:03:00,62.4,61.3,29.54,SW,216,5.0,10.0,96,0.06,,,3.19,meteohub,2013-04-18 17:03:00,
2013-04-18 13:08:00,63.0,61.9,29.54,SW,235,6.0,10.0,96,0.06,,,3.19,meteohub,2013-04-18 17:08:00,
2013-04-18 13:13:00,63.3,61.9,29.55,West,260,5.0,10.0,95,0.06,,,3.19,meteohub,2013-04-18 17:13:00,
2013-04-18 13:18:00,63.3,61.5,29.54,SW,229,5.0,10.0,94,0.06,,,3.19,meteohub,2013-04-18 17:18:00,
2013-04-18 13:23:00,63.5,61.7,29.53,SSW,205,6.0,10.0,94,0.06,,,3.19,meteohub,2013-04-18 17:23:00,
2013-04-18 13:28:00,63.5,62.1,29.53,SSW,212,5.0,10.0,95,0.01,,,3.19,meteohub,2013-04-18 17:28:00,
2013-04-18 13:33:00,63.5,62.1,29.54,SW,225,7.0,12.0,95,0.01,,,3.19,meteohub,2013-04-18 17:33:00,
2013-04-18 13:38:00,63.5,62.1,29.55,SW,233,10.0,12.0,95,0.01,,,3.19,meteohub,2013-04-18 17:38:00,
2013-04-18 13:43:00,63.3,61.9,29.55,WSW,240,12.0,12.0,95,0.01,,,3.19,meteohub,2013-04-18 17:43:00,
2013-04-18 13:48:00,63.3,61.9,29.56,South,190,10.0,12.0,95,0.01,,,3.19,meteohub,2013-04-18 17:48:00,
2013-04-18 13:53:00,63.1,61.7,29.55,SW,235,11.0,12.0,95,0.01,,,3.22,meteohub,2013-04-18 17:53:00,
2013-04-18 13:58:00,63.1,61.7,29.55,SW,232,13.0,24.0,95,0.05,,,3.22,meteohub,2013-04-18 17:58:00,
2013-04-18 14:03:00,63.1,61.7,29.53,WSW,238,12.0,24.0,95,0.05,,,3.22,meteohub,2013-04-18 18:03:00,
2013-04-18 14:08:00,63.1,61.7,29.54,SW,236,16.0,24.0,95,0.05,,,3.22,meteohub,2013-04-18 18:08:00,
2013-04-18 14:13:00,63.1,61.7,29.55,SSW,205,12.0,24.0,95,0.05,,,3.26,meteohub,2013-04-18 18:13:00,
2013-04-18 14:19:00,63.1,61.7,29.55,SW,226,12.0,24.0,95,0.06,,,3.26,meteohub,2013-04-18 18:19:00,
2013-04-18 14:24:00,63.1,61.7,29.55,SSW,211,9.0,24.0,95,0.06,,,3.26,meteohub,2013-04-18 18:24:00,
2013-04-18 14:29:00,63.1,61.7,29.55,WSW,248,10.0,24.0,95,0.06,,,3.27,meteohub,2013-04-18 18:29:00,
2013-04-18 14:34:00,63.0,61.5,29.56,SW,228,12.0,24.0,95,0.06,,,3.27,meteohub,2013-04-18 18:34:00,
2013-04-18 14:39:00,63.0,61.2,29.57,SW,232,8.0,24.0,94,0.06,,,3.27,meteohub,2013-04-18 18:39:00,
2013-04-18 14:44:00,62.8,61.3,29.57,SW,232,9.0,24.0,95,0.06,,,3.27,meteohub,2013-04-18 18:44:00,
2013-04-18 14:49:00,62.8,61.3,29.58,WSW,242,11.0,24.0,95,0.04,,,3.27,meteohub,2013-04-18 18:49:00,
2013-04-18 14:54:00,62.6,61.2,29.58,WSW,249,15.0,19.0,95,0.04,,,3.27,meteohub,2013-04-18 18:54:00,
2013-04-18 14:59:00,62.4,60.6,29.57,WSW,245,8.0,19.0,94,0.02,,,3.27,meteohub,2013-04-18 18:59:00,
2013-04-18 15:04:00,62.4,60.6,29.57,WSW,242,11.0,22.0,94,0.02,,,3.27,meteohub,2013-04-18 19:04:00,
2013-04-18 15:09:00,62.4,60.6,29.58,SW,229,13.0,22.0,94,0.02,,,3.27,meteohub,2013-04-18 19:09:00,
2013-04-18 15:14:00,62.4,60.6,29.57,WSW,242,13.0,22.0,94,0.02,,,3.28,meteohub,2013-04-18 19:14:00,
2013-04-18 15:19:00,62.4,60.6,29.58,WSW,253,17.0,24.0,94,0.02,,,3.28,meteohub,2013-04-18 19:19:00,
2013-04-18 15:24:00,62.2,60.4,29.58,WSW,253,8.0,24.0,94,0.02,,,3.28,meteohub,2013-04-18 19:24:00,
2013-04-18 15:29:00,62.2,60.4,29.58,SW,233,12.0,24.0,94,0.01,,,3.28,meteohub,2013-04-18 19:29:00,
2013-04-18 15:34:00,62.2,60.4,29.57,WSW,244,5.0,18.0,94,0.01,,,3.28,meteohub,2013-04-18 19:34:00,
2013-04-18 15:39:00,62.2,60.4,29.58,SW,225,7.0,18.0,94,0.01,,,3.28,meteohub,2013-04-18 19:39:00,
2013-04-18 15:45:00,62.2,60.4,29.58,WSW,250,12.0,18.0,94,0.01,,,3.29,meteohub,2013-04-18 19:45:00,
2013-04-18 15:50:00,62.2,60.4,29.57,SW,214,9.0,15.0,94,0.02,,,3.29,meteohub,2013-04-18 19:50:00,
2013-04-18 15:55:00,62.4,60.6,29.57,SW,215,8.0,15.0,94,0.02,,,3.29,meteohub,2013-04-18 19:55:00,
2013-04-18 16:00:00,62.6,60.8,29.57,SSW,211,10.0,15.0,94,0.02,,,3.29,meteohub,2013-04-18 20:00:00,
2013-04-18 16:05:00,63.0,61.2,29.57,SSW,212,8.0,22.0,94,0.02,,,3.29,meteohub,2013-04-18 20:05:00,
2013-04-18 16:10:00,63.0,61.2,29.57,SSW,211,8.0,22.0,94,0.02,,,3.29,meteohub,2013-04-18 20:10:00,
2013-04-18 16:15:00,63.1,61.2,29.58,SSW,201,8.0,22.0,93,0.02,,,3.29,meteohub,2013-04-18 20:15:00,
2013-04-18 16:20:00,63.1,61.2,29.57,SW,225,12.0,18.0,93,0.01,,,3.29,meteohub,2013-04-18 20:20:00,
2013-04-18 16:25:00,63.1,61.2,29.57,SW,214,7.0,18.0,93,0.01,,,3.29,meteohub,2013-04-18 20:25:00,
2013-04-18 16:30:00,63.1,61.2,29.55,SSW,210,11.0,18.0,93,0.02,,,3.30,meteohub,2013-04-18 20:30:00,
2013-04-18 16:35:00,63.1,61.2,29.55,SSW,203,9.0,17.0,93,0.02,,,3.30,meteohub,2013-04-18 20:35:00,
2013-04-18 16:40:00,63.3,61.3,29.54,SSE,163,10.0,17.0,93,0.02,,,3.30,meteohub,2013-04-18 20:40:00,
2013-04-18 16:45:00,63.3,61.3,29.54,South,191,11.0,17.0,93,0.02,,,3.30,meteohub,2013-04-18 20:45:00,
2013-04-18 16:50:00,63.3,61.3,29.53,SSE,161,7.0,16.0,93,0.01,,,3.30,meteohub,2013-04-18 20:50:00,
2013-04-18 16:55:00,63.1,61.2,29.53,SSW,200,13.0,16.0,93,0.01,,,3.30,meteohub,2013-04-18 20:55:00,
2013-04-18 17:00:00,63.3,61.3,29.52,South,181,14.0,16.0,93,0.01,,,3.30,meteohub,2013-04-18 21:00:00,
2013-04-18 17:05:00,63.3,61.3,29.52,SSW,194,7.0,16.0,93,0.01,,,3.30,meteohub,2013-04-18 21:05:00,
2013-04-18 17:10:00,63.3,61.3,29.52,SSW,194,11.0,16.0,93,0.01,,,3.30,meteohub,2013-04-18 21:10:00,
2013-04-18 17:15:00,63.3,61.3,29.53,SSW,197,12.0,16.0,93,0.01,,,3.31,meteohub,2013-04-18 21:15:00,
2013-04-18 17:20:00,63.3,61.0,29.53,South,191,5.0,16.0,92,0.02,,,3.31,meteohub,2013-04-18 21:20:00,
2013-04-18 17:25:00,63.3,61.0,29.52,SSW,193,14.0,16.0,92,0.02,,,3.31,meteohub,2013-04-18 21:25:00,
2013-04-18 17:30:00,63.3,61.0,29.52,SSW,212,17.0,20.0,92,0.02,,,3.31,meteohub,2013-04-18 21:30:00,
2013-04-18 17:35:00,63.1,60.8,29.51,SSE,166,9.0,20.0,92,0.02,,,3.31,meteohub,2013-04-18 21:35:00,
2013-04-18 17:40:00,63.1,60.8,29.54,SSW,212,13.0,20.0,92,0.02,,,3.31,meteohub,2013-04-18 21:40:00,
2013-04-18 17:45:00,63.1,60.8,29.52,South,181,6.0,20.0,92,0.02,,,3.32,meteohub,2013-04-18 21:45:00,
2013-04-18 17:50:00,63.1,60.8,29.54,SSW,205,10.0,23.0,92,0.02,,,3.32,meteohub,2013-04-18 21:50:00,
2013-04-18 17:55:00,63.1,60.8,29.53,SW,214,22.0,23.0,92,0.02,,,3.32,meteohub,2013-04-18 21:55:00,
2013-04-18 18:00:00,63.1,60.8,29.53,South,189,9.0,26.0,92,0.02,,,3.32,meteohub,2013-04-18 22:00:00,
2013-04-18 18:05:00,63.1,60.8,29.54,SW,222,11.0,26.0,92,0.02,,,3.32,meteohub,2013-04-18 22:05:00,
2013-04-18 18:11:00,63.1,60.8,29.52,SSW,203,19.0,26.0,92,0.02,,,3.32,meteohub,2013-04-18 22:11:00,
2013-04-18 18:16:00,63.1,60.4,29.52,South,169,12.0,26.0,91,0.02,,,3.32,meteohub,2013-04-18 22:16:00,
2013-04-18 18:21:00,63.3,60.6,29.52,SSW,212,13.0,24.0,91,0.01,,,3.32,meteohub,2013-04-18 22:21:00,
2013-04-18 18:26:00,63.3,60.6,29.52,South,185,11.0,24.0,91,0.01,,,3.32,meteohub,2013-04-18 22:26:00,
2013-04-18 18:31:00,63.1,60.4,29.52,SSW,195,9.0,24.0,91,0.01,,,3.32,meteohub,2013-04-18 22:31:00,
2013-04-18 18:36:00,63.1,60.1,29.52,SW,217,6.0,24.0,90,0.01,,,3.32,meteohub,2013-04-18 22:36:00,
2013-04-18 18:41:00,63.3,60.3,29.53,SSW,207,13.0,24.0,90,0.01,,,3.32,meteohub,2013-04-18 22:41:00,
2013-04-18 18:46:00,63.3,60.3,29.53,South,191,15.0,24.0,90,0.00,,,3.32,meteohub,2013-04-18 22:46:00,
2013-04-18 18:51:00,63.1,60.1,29.54,SW,220,23.0,25.0,90,0.00,,,3.32,meteohub,2013-04-18 22:51:00,
2013-04-18 18:56:00,63.1,60.1,29.53,SSW,199,14.0,25.0,90,0.00,,,3.32,meteohub,2013-04-18 22:56:00,
2013-04-18 19:01:00,63.0,59.9,29.51,South,186,23.0,25.0,90,0.00,,,3.32,meteohub,2013-04-18 23:01:00,
2013-04-18 19:06:00,62.8,60.1,29.51,South,180,15.0,25.0,91,0.00,,,3.32,meteohub,2013-04-18 23:06:00,
2013-04-18 19:11:00,62.6,59.9,29.50,South,169,20.0,25.0,91,0.00,,,3.32,meteohub,2013-04-18 23:11:00,
2013-04-18 19:16:00,62.6,59.9,29.49,SSE,164,15.0,23.0,91,0.00,,,3.32,meteohub,2013-04-18 23:16:00,
2013-04-18 19:21:00,62.4,59.7,29.47,SSE,155,14.0,23.0,91,0.00,,,3.32,meteohub,2013-04-18 23:21:00,
2013-04-18 19:27:00,62.2,59.5,29.46,SE,136,17.0,23.0,91,0.00,,,3.32,meteohub,2013-04-18 23:27:00,
2013-04-18 19:32:00,62.2,59.5,29.46,SSE,150,14.0,24.0,91,0.00,,,3.32,meteohub,2013-04-18 23:32:00,
2013-04-18 19:37:00,62.2,59.5,29.47,SE,146,13.0,24.0,91,0.00,,,3.32,meteohub,2013-04-18 23:37:00,
2013-04-18 19:42:00,62.2,59.5,29.48,South,176,11.0,24.0,91,0.00,,,3.32,meteohub,2013-04-18 23:42:00,
2013-04-18 19:47:00,62.2,59.5,29.49,SSE,160,11.0,24.0,91,0.00,,,3.32,meteohub,2013-04-18 23:47:00,
2013-04-18 19:52:00,62.1,59.4,29.50,SE,136,11.0,24.0,91,0.00,,,3.32,meteohub,2013-04-18 23:52:00,
2013-04-18 19:57:00,62.1,59.4,29.51,SSE,162,14.0,24.0,91,0.00,,,3.32,meteohub,2013-04-18 23:57:00,
2013-04-18 20:02:00,61.9,59.2,29.50,SSE,160,15.0,25.0,91,0.00,,,3.32,meteohub,2013-04-19 00:02:00,
2013-04-18 20:07:00,61.9,59.5,29.48,South,179,23.0,25.0,92,0.00,,,3.32,meteohub,2013-04-19 00:07:00,
2013-04-18 20:12:00,61.7,59.4,29.47,SSE,155,18.0,25.0,92,0.00,,,3.32,meteohub,2013-04-19 00:12:00,
2013-04-18 20:17:00,61.7,59.0,29.45,SE,143,20.0,28.0,91,0.00,,,3.32,meteohub,2013-04-19 00:17:00,
2013-04-18 20:22:00,61.7,59.0,29.41,SSE,152,28.0,28.0,91,0.00,,,3.32,meteohub,2013-04-19 00:22:00,
2013-04-18 20:27:00,61.7,58.8,29.40,SE,124,20.0,28.0,90,0.00,,,3.32,meteohub,2013-04-19 00:27:00,
2013-04-18 20:32:00,61.5,58.6,29.39,SE,143,28.0,34.0,90,0.00,,,3.32,meteohub,2013-04-19 00:32:00,
2013-04-18 20:37:00,61.5,58.6,29.42,South,181,20.0,34.0,90,0.00,,,3.32,meteohub,2013-04-19 00:37:00,
2013-04-18 20:42:00,61.7,58.8,29.44,South,186,16.0,32.0,90,0.00,,,3.32,meteohub,2013-04-19 00:42:00,
2013-04-18 20:47:00,61.9,58.6,29.44,SSE,150,11.0,32.0,89,0.00,,,3.32,meteohub,2013-04-19 00:47:00,
2013-04-18 20:52:00,61.9,58.6,29.45,SSE,160,15.0,32.0,89,0.00,,,3.32,meteohub,2013-04-19 00:52:00,
2013-04-18 20:57:00,61.9,58.6,29.44,SSE,158,13.0,26.0,89,0.00,,,3.32,meteohub,2013-04-19 00:57:00,
2013-04-18 21:02:00,61.7,58.1,29.38,SE,131,18.0,26.0,88,0.00,,,3.32,meteohub,2013-04-19 01:02:00,
2013-04-18 21:08:00,61.9,58.3,29.42,SW,222,11.0,26.0,88,0.00,,,3.32,meteohub,2013-04-19 01:08:00,
2013-04-18 21:13:00,62.1,58.1,29.44,SE,146,11.0,27.0,87,0.00,,,3.32,meteohub,2013-04-19 01:13:00,
2013-04-18 21:18:00,62.1,58.1,29.47,SSW,200,18.0,27.0,87,0.00,,,3.32,meteohub,2013-04-19 01:18:00,
2013-04-18 21:23:00,62.1,58.1,29.47,SSW,198,10.0,27.0,87,0.00,,,3.32,meteohub,2013-04-19 01:23:00,
2013-04-18 21:28:00,62.1,58.1,29.47,South,169,12.0,27.0,87,0.00,,,3.32,meteohub,2013-04-19 01:28:00,
2013-04-18 21:33:00,61.9,57.9,29.47,SSW,195,9.0,24.0,87,0.00,,,3.32,meteohub,2013-04-19 01:33:00,
2013-04-18 21:38:00,61.9,58.3,29.46,SE,142,8.0,24.0,88,0.00,,,3.32,meteohub,2013-04-19 01:38:00,
2013-04-18 21:43:00,61.9,57.9,29.46,SSE,160,8.0,17.0,87,0.00,,,3.32,meteohub,2013-04-19 01:43:00,
2013-04-18 21:48:00,61.9,57.9,29.47,SSE,166,12.0,17.0,87,0.00,,,3.32,meteohub,2013-04-19 01:48:00,
2013-04-18 21:53:00,61.5,57.9,29.48,South,173,11.0,17.0,88,0.00,,,3.32,meteohub,2013-04-19 01:53:00,
2013-04-18 21:58:00,61.5,57.9,29.49,SSE,153,12.0,16.0,88,0.00,,,3.32,meteohub,2013-04-19 01:58:00,
2013-04-18 22:03:00,61.5,57.9,29.50,SSE,165,12.0,16.0,88,0.00,,,3.32,meteohub,2013-04-19 02:03:00,
2013-04-18 22:08:00,61.5,57.9,29.49,SW,214,14.0,16.0,88,0.00,,,3.32,meteohub,2013-04-19 02:08:00,
2013-04-18 22:13:00,61.5,57.9,29.47,South,170,18.0,18.0,88,0.00,,,3.32,meteohub,2013-04-19 02:13:00,
2013-04-18 22:18:00,61.5,57.9,29.48,SSW,200,12.0,18.0,88,0.00,,,3.32,meteohub,2013-04-19 02:18:00,
2013-04-18 22:23:00,61.5,57.9,29.47,SE,134,12.0,18.0,88,0.00,,,3.32,meteohub,2013-04-19 02:23:00,
2013-04-18 22:28:00,61.3,58.1,29.48,SSE,152,12.0,22.0,89,0.00,,,3.32,meteohub,2013-04-19 02:28:00,
2013-04-18 22:33:00,61.3,58.1,29.47,SSE,152,13.0,22.0,89,0.00,,,3.32,meteohub,2013-04-19 02:33:00,
2013-04-18 22:38:00,61.3,58.1,29.46,SSE,148,12.0,22.0,89,0.00,,,3.32,meteohub,2013-04-19 02:38:00,
2013-04-18 22:43:00,61.3,58.1,29.47,SW,221,12.0,23.0,89,0.00,,,3.32,meteohub,2013-04-19 02:43:00,
2013-04-18 22:48:00,61.3,58.1,29.46,SSE,148,15.0,23.0,89,0.00,,,3.32,meteohub,2013-04-19 02:48:00,
2013-04-18 22:53:00,61.3,58.1,29.45,SSE,148,14.0,23.0,89,0.00,,,3.32,meteohub,2013-04-19 02:53:00,
2013-04-18 22:58:00,61.2,57.9,29.46,SE,135,7.0,21.0,89,0.00,,,3.32,meteohub,2013-04-19 02:58:00,
2013-04-18 23:04:00,61.2,58.3,29.45,South,169,10.0,21.0,90,0.00,,,3.32,meteohub,2013-04-19 03:04:00,
2013-04-18 23:09:00,61.2,58.3,29.44,SSE,158,9.0,21.0,90,0.00,,,3.32,meteohub,2013-04-19 03:09:00,
2013-04-18 23:14:00,61.2,58.3,29.43,SSW,193,11.0,18.0,90,0.00,,,3.32,meteohub,2013-04-19 03:14:00,
2013-04-18 23:19:00,61.5,58.3,29.42,SE,134,11.0,18.0,89,0.00,,,3.32,meteohub,2013-04-19 03:19:00,
2013-04-18 23:24:00,62.1,58.8,29.43,South,177,14.0,18.0,89,0.00,,,3.32,meteohub,2013-04-19 03:24:00,
2013-04-18 23:29:00,62.1,58.5,29.42,SSE,148,12.0,22.0,88,0.00,,,3.32,meteohub,2013-04-19 03:29:00,
2013-04-18 23:34:00,62.1,58.8,29.42,SSW,195,14.0,22.0,89,0.00,,,3.32,meteohub,2013-04-19 03:34:00,
2013-04-18 23:39:00,61.9,58.6,29.41,South,172,9.0,22.0,89,0.00,,,3.32,meteohub,2013-04-19 03:39:00,
2013-04-18 23:44:00,61.5,58.6,29.41,SW,218,17.0,24.0,90,0.00,,,3.32,meteohub,2013-04-19 03:44:00,
2013-04-18 23:49:00,61.3,58.5,29.41,South,189,10.0,24.0,90,0.00,,,3.32,meteohub,2013-04-19 03:49:00,
2013-04-18 23:54:00,61.2,58.5,29.42,South,180,14.0,24.0,91,0.00,,,3.33,meteohub,2013-04-19 03:54:00,
2013-04-18 23:59:00,61.0,58.6,29.42,SE,142,12.0,24.0,92,0.01,,,3.33,meteohub,2013-04-19 03:59:00,